Weather History for Tampa, FL

Change the Weather History Date:

Friday, June 21, 2013

  Actual Average Record
Temperature  
Mean Temperature 83 °F 82 °F  
Max Temperature 92 °F 90 °F 98 °F (1998)
Min Temperature 73 °F 75 °F 64 °F (1928)
Degree Days  
Heating Degree Days 0 0  
Month to date heating degree days 0 0  
Since 1 June heating degree days 0 0  
Since 1 July heating degree days 400 538  
Cooling Degree Days 18 17  
Month to date cooling degree days 372 354  
Year to date cooling degree days 1347 1231  
Since 1 June cooling degree days 372 354  
Growing Degree Days 32 (Base 50)    
Moisture  
Dew Point 71 °F    
Average Humidity 79    
Maximum Humidity 100    
Minimum Humidity 57    
Precipitation  
Precipitation 0.41 in 0.25 in 3.08 in (2008)
Month to date precipitation 9.08 4.19  
Year to date precipitation 18.20 16.39  
Sea Level Pressure  
Sea Level Pressure 30.10 in    
Wind  
Wind Speed 4 mph (NNE)    
Max Wind Speed 14 mph    
Max Gust Speed 23 mph    
Visibility 10 miles    
Events Rain , Thunderstorm    
T = Trace of Precipitation, MM = Missing Value Source: NWS Daily Summary

Daily Weather History Graph

Daily Weather History Graph

Search for Another Location

Airport:

Trip Planner

Search our weather history database for the weather conditions in past years. The results will help you decide how hot, cold, wet, or windy it might be!

Date:

Astronomy

Jun. 21, 2013 Rise Set
Actual Time 6:34 AM EDT 8:29 PM EDT
Civil Twilight 6:07 AM EDT 8:56 PM EDT
Nautical Twilight 5:35 AM EDT 9:28 PM EDT
Astronomical Twilight 5:01 AM EDT 10:02 PM EDT
Moon 6:44 PM EDT (6/21) 4:41 AM EDT (6/21)
Length of Visible Light 14h 48m
Length of Day
13h 55m
Waxing Gibbous, 95% of the Moon is Illuminated
Jun 21
Waxing Gibbous
Jun 23
Full
Jun 30
Last Quarter
Jul 8
New
Jul 15
First Quarter

Hourly Weather History & Observations

Time (EDT) Temp. Heat Index Dew Point Humidity Pressure Visibility Wind Dir Wind Speed Gust Speed Precip Events Conditions
12:53 AM 78.1 °F - 70.0 °F 76% 30.10 in 10.0 mi Calm Calm - N/A   Scattered Clouds
1:53 AM 78.1 °F - 70.0 °F 76% 30.09 in 10.0 mi Calm Calm - N/A   Partly Cloudy
2:53 AM 77.0 °F - 70.0 °F 79% 30.08 in 10.0 mi ESE 3.5 mph - N/A   Partly Cloudy
3:53 AM 75.9 °F - 71.1 °F 85% 30.06 in 10.0 mi Calm Calm - N/A   Partly Cloudy
4:53 AM 77.0 °F - 71.1 °F 82% 30.06 in 10.0 mi Calm Calm - N/A   Clear
5:53 AM 75.9 °F - 71.1 °F 85% 30.06 in 10.0 mi Calm Calm - N/A   Partly Cloudy
6:53 AM 77.0 °F - 71.1 °F 82% 30.07 in 10.0 mi Calm Calm - N/A   Partly Cloudy
7:53 AM 79.0 °F - 72.0 °F 79% 30.09 in 10.0 mi Calm Calm - N/A   Partly Cloudy
8:53 AM 82.0 °F 86.7 °F 72.0 °F 71% 30.11 in 10.0 mi Variable 4.6 mph - N/A   Scattered Clouds
9:53 AM 84.0 °F 90.2 °F 73.0 °F 69% 30.12 in 10.0 mi Variable 4.6 mph - N/A   Scattered Clouds
10:53 AM 84.9 °F 90.7 °F 72.0 °F 65% 30.12 in 10.0 mi SW 6.9 mph - N/A   Scattered Clouds
11:53 AM 86.0 °F 91.5 °F 71.1 °F 61% 30.12 in 10.0 mi Variable 5.8 mph - N/A   Mostly Cloudy
12:53 PM 86.0 °F 92.2 °F 72.0 °F 63% 30.12 in 10.0 mi WSW 9.2 mph - N/A   Mostly Cloudy
1:53 PM 84.9 °F 90.1 °F 71.1 °F 63% 30.12 in 10.0 mi NNW 11.5 mph - N/A   Mostly Cloudy
2:53 PM 86.0 °F 92.2 °F 72.0 °F 63% 30.10 in 10.0 mi North 5.8 mph - N/A   Mostly Cloudy
3:53 PM 87.1 °F 92.8 °F 71.1 °F 59% 30.08 in 10.0 mi West 9.2 mph - N/A   Mostly Cloudy
4:53 PM 87.1 °F 92.8 °F 71.1 °F 59% 30.09 in 10.0 mi NW 9.2 mph 16.1 mph N/A   Mostly Cloudy
5:53 PM 86.0 °F 90.7 °F 70.0 °F 59% 30.09 in 10.0 mi Calm Calm - N/A   Mostly Cloudy
6:53 PM 77.0 °F - 69.1 °F 76% 30.11 in 10.0 mi ESE 11.5 mph 23.0 mph 0.00 in Rain , Thunderstorm Light Thunderstorms and Rain
7:06 PM 75.2 °F - 71.6 °F 89% 30.11 in 1.5 mi ESE 3.5 mph - 0.11 in Rain , Thunderstorm Light Thunderstorms and Rain
7:23 PM 73.4 °F - 71.6 °F 94% 30.11 in 3.0 mi NE 3.5 mph - 0.37 in Rain , Thunderstorm Light Thunderstorms and Rain
7:53 PM 73.9 °F - 71.1 °F 91% 30.10 in 10.0 mi NNW 8.1 mph - 0.39 in   Mostly Cloudy
8:53 PM 73.9 °F - 73.0 °F 97% 30.10 in 10.0 mi ENE 3.5 mph - 0.02 in Rain Light Rain
9:53 PM 73.9 °F - 72.0 °F 93% 30.12 in 10.0 mi Calm Calm - 0.00 in   Mostly Cloudy
10:53 PM 73.9 °F - 73.0 °F 97% 30.12 in 10.0 mi Calm Calm - N/A   Mostly Cloudy
11:53 PM 73.9 °F - 72.0 °F 93% 30.12 in 10.0 mi ENE 3.5 mph - N/A   Scattered Clouds